#timestamp,LO_Frequency,Hit,StdDev 
1621674015.5,286047004.0,N
1621674035.3,286047002.7,N
1621674055.1,286047003.7,N
1621674075.9,286047003.5,N
1621674095.7,286047005.6,N
1621674115.5,286047003.4,N
1621674135.4,286046999.9,N
1621674155.2,286047002.4,N
1621674175.1,286047000.8,N
1621674176.0,286047000.8,N
1621674195.8,286047001.2,N
1621674215.6,286046999.5,N
1621674235.5,286046999.3,N
1621674255.3,286046998.6,N
1621674275.1,286047000.1,N
1621674295.9,286046999.9,N
1621674315.7,286046999.9,N
1621674335.6,286047002.2,N
1621674355.4,286047001.7,N
1621674375.2,286047003.9,N
1621674395.1,286047001.0,N
1621674396.0,286047001.0,N
1621674415.8,286047001.0,N
1621674435.7,286047000.2,N
1621674455.5,286047002.5,N
1621674475.3,286047002.1,N
1621674495.2,286047001.1,N
1621674515.0,286047000.9,N
1621674515.9,286047000.9,N
1621674535.7,286046999.7,N
1621674555.6,286046999.9,N
1621674575.4,286046998.5,N
1621674595.3,286046999.2,N
1621674615.1,286047000.6,N
1621674616.0,286047000.6,N
1621674635.8,286046997.8,N
1621674655.7,286046996.3,N
1621674675.5,286046993.7,Y
1621674695.4,286046994.8,P
1621674715.2,286046993.6,N
1621674735.0,286046995.9,N
1621674735.9,286046995.9,N
1621674755.8,286046995.0,N
1621674775.6,286046995.5,N
1621674795.5,286046997.3,N
1621674815.3,286046997.9,N
1621674835.1,286046996.1,N
1621674855.9,286046993.9,Y
1621674875.7,286046996.6,P
1621674895.5,286046998.8,P
1621674915.4,286046998.2,N
1621674935.2,286046998.4,N
1621674955.1,286046999.0,N
1621674956.0,286046999.0,N
1621674975.8,286047006.9,Y
1621674995.6,286047009.8,P
1621675015.5,286047006.8,N
1621675035.3,286047003.6,N
1621675055.1,286047003.7,N
1621675075.9,286047003.0,N
1621675095.7,286047009.5,N
1621675115.6,286047009.4,N
1621675135.4,286047008.8,N
1621675155.2,286047004.7,N
1621675175.1,286047003.1,N
1621675176.0,286047003.1,N
1621675195.8,286047004.5,N
1621675215.6,286047007.1,N
1621675235.5,286047005.7,N
1621675255.3,286047003.8,N
1621675275.2,286047004.0,N
1621675295.9,286047004.3,N
1621675315.7,286047002.6,N
1621675335.6,286046998.6,N
1621675355.4,286047002.7,N
1621675375.2,286047002.4,N
1621675395.1,286047001.7,N
1621675396.0,286047001.7,N
1621675415.8,286047001.5,N
1621675435.7,286047004.4,N
1621675455.5,286047002.4,N
1621675475.3,286047002.0,N
1621675495.2,286047001.0,N
1621675515.0,286046999.4,N
1621675515.9,286046999.4,N
1621675535.8,286046996.8,N
1621675555.6,286046998.5,N
1621675575.4,286046999.0,N
1621675595.3,286046998.8,N
1621675615.1,286046998.1,N
1621675635.8,286047000.8,N
1621675655.7,286047001.1,N
1621675675.5,286047000.6,N
1621675695.3,286046998.2,N
1621675715.2,286047001.2,N
1621675735.0,286047000.6,N
1621675735.9,286047000.6,N
1621675755.8,286047000.5,N
1621675775.6,286046999.7,N
1621675795.4,286047002.3,N
1621675815.3,286046998.8,N
1621675835.1,286046999.1,N
1621675855.8,286047000.9,N
1621675875.7,286047002.4,N
1621675895.5,286047000.7,N
1621675915.4,286046998.3,N
1621675935.2,286046998.5,N
1621675955.0,286046998.1,N
1621675955.9,286046998.1,N
1621675975.8,286047000.5,N
1621675995.6,286047000.7,N
1621676015.5,286047000.9,N
1621676035.3,286047000.9,N
1621676055.1,286047000.0,N
1621676075.9,286047000.9,N
1621676095.7,286047000.9,N
1621676115.6,286047000.5,N
1621676135.4,286047001.0,N
1621676155.2,286046997.2,N
1621676175.1,286046996.5,N
1621676176.0,286046996.5,N
1621676195.8,286046998.5,N
1621676215.7,286046998.2,N
1621676235.5,286047000.6,N
1621676255.3,286047000.8,N
1621676275.2,286047000.4,N
1621676295.0,286047000.2,N
1621676295.9,286047000.2,N
1621676315.8,286047000.5,N
1621676335.6,286046999.2,N
1621676355.4,286047001.2,N
1621676375.3,286047000.9,N
1621676395.1,286046998.9,N
1621676415.8,286046998.1,N
1621676435.7,286047002.3,N
1621676455.5,286047000.6,N
1621676475.4,286047001.2,N
1621676495.2,286047001.9,N
1621676515.0,286047002.8,N
1621676515.9,286047002.8,N
1621676535.8,286047002.6,N
1621676555.6,286047001.6,N
1621676575.5,286047003.8,N
1621676595.3,286047002.9,N
1621676615.1,286047004.8,N
1621676635.9,286047003.0,N
1621676655.7,286047003.4,N
1621676675.5,286047001.8,N
1621676695.4,286047002.1,N
1621676715.2,286047004.3,N
1621676735.1,286047003.4,N
1621676736.0,286047003.4,N
1621676755.8,286047001.6,N
1621676775.6,286047000.3,N
1621676795.5,286047003.5,N
1621676815.3,286047004.2,N
1621676835.2,286047002.9,N
1621676855.9,286047000.2,N
1621676875.7,286047000.0,N
1621676895.6,286046999.8,N
1621676915.4,286047002.8,N
1621676935.3,286046999.8,N
1621676955.1,286047001.6,N
1621676956.0,286047001.6,N
1621676975.8,286047004.4,Y
1621676995.7,286047002.2,P
1621677015.5,286047002.3,P
1621677035.3,286047002.6,P
1621677055.2,286047001.6,Y
1621677075.0,286047000.9,P
1621677075.9,286047000.9,N
1621677095.8,286046998.5,N
1621677115.6,286046998.9,N
1621677135.4,286046999.1,N
1621677155.3,286046996.5,N
1621677175.1,286046996.6,N
1621677195.9,286046998.6,N
1621677215.7,286046998.9,N
1621677235.5,286047000.9,N
1621677255.4,286047000.0,N
1621677275.2,286047002.8,N
1621677295.0,286047000.4,N
1621677296.0,286047000.4,N
1621677315.8,286046999.3,N
1621677335.6,286046999.1,N
1621677355.5,286046998.8,N
1621677375.3,286046999.8,N
1621677395.1,286046999.7,N
1621677415.9,286046999.8,N
1621677435.7,286047001.0,N
1621677455.6,286046998.2,N
1621677475.4,286047000.7,N
1621677495.2,286047000.5,N
1621677515.1,286047002.2,N
1621677516.0,286047002.2,N
1621677535.8,286047001.1,N
1621677555.7,286047000.4,N
1621677575.5,286047001.5,N
1621677595.3,286047002.1,N
